Effective Sunday, March 17, 2024, the National Weather Service National Data Buoy Center will discontinue its Dial-A-Buoy Interactive Voice Response system. For more information, see Service Change Notice 24-06 (PDF).

Station SNDA2 - 9459450 - Sand Point, AK Image indicating link to RSS feed of recent meteorological observations for station SNDA2


Conditions at SNDA2 as of
(6:12 pm AKST on 02/29/2024)
0312 GMT on 03/01/2024:
     

Click on the graph icon in the table below to see a time series plot of the last five days of that observation.

5-day plot - Wind Direction Wind Direction (WDIR):WSW ( 240 deg true )
5-day plot - Wind Speed Wind Speed (WSPD): 8.0 kts
5-day plot - Wind Gust Wind Gust (GST): 14.0 kts
5-day plot - Atmospheric Pressure Atmospheric Pressure (PRES):30.20 in
5-day plot - Air Temperature Air Temperature (ATMP): 19.8 °F
5-day plot - Water Temperature Water Temperature (WTMP): 37.6 °F
5-day plot - Ice Accretion Ice Accretion (ICE): 0.08 in per hour
5-day plot - Wind Chill Wind Chill (CHILL): 9.1 °F
5-day plot - Wind Speed at 10 Meters Wind Speed at 10 meters (WSPD10M): 7.8 kts
5-day plot - Wind Speed at 20 Meters Wind Speed at 20 meters (WSPD20M): 9.7 kts
5-day plot -  Wind Speed, Wind Gust and Atmospheric Pressure Combined plot of Wind Speed, Gust, and Air Pressure
NOS Water Level Observation Network Water Level
Previous observations
TIME
(AKST)
5-day plot - Wind Direction
WDIR
 
5-day plot - Wind Speed
WSPD
kts
5-day plot - Wind Gust
GST
kts
5-day plot - Wave Height
WVHT
ft
5-day plot - Dominant Wave Period
DPD
sec
5-day plot - Average Wave Period
APD
sec
5-day plot - Mean Wave Direction
MWD
 
5-day plot - Atmospheric Pressure
PRES
in
5-day plot - Pressure Tendency
PTDY
in
5-day plot - Air Temperature
ATMP
°F
5-day plot - Water Temperature
WTMP
°F
5-day plot - Dew Point
DEWP
°F
5-day plot - Salinity
SAL
psu
5-day plot - Visibility
VIS
nmi
5-day plot - Tide (above MLLW)
TIDE
ft
2024-02-29 06:06 pm SW 6.0 15.9----30.19- 19.9 37.6----
2024-02-29 06:00 pmWSW 6.0 22.9----30.20+0.00 20.1 37.6----
2024-02-29 05:54 pm NW 13.0 18.1----30.19- 20.1 37.6----
2024-02-29 05:48 pm NW 12.0 17.1----30.19- 19.9 37.6----
2024-02-29 05:42 pmWNW 12.0 22.0----30.19- 20.5 37.6----
2024-02-29 05:36 pmNNW 14.0 24.1----30.19- 20.5 37.4----
2024-02-29 05:30 pmNNW 14.0 26.0----30.19- 20.7 37.4----
2024-02-29 05:24 pm NW 18.1 26.0----30.18- 20.3 37.4----
2024-02-29 05:18 pmNNW 19.0 22.9----30.18- 20.7 37.2----
2024-02-29 05:12 pm NW 17.1 27.0----30.17- 21.7 37.4----
2024-02-29 05:06 pmNNW 21.0 28.9----30.17- 20.5 37.2----
2024-02-29 05:00 pmNNW 21.0 28.9------------
2024-02-29 04:54 pmNNW 25.1 31.1----30.17- 21.0 36.9----
2024-02-29 04:48 pmNNW 25.1 31.1----30.16- 20.8 36.9----
2024-02-29 04:42 pmNNW 25.1 34.0----30.16- 21.0 36.9----
2024-02-29 04:36 pmNNW 28.9 34.0----30.15- 21.0 36.9----
2024-02-29 04:30 pmNNW 28.9 36.9----30.14- 20.7 37.0----
2024-02-29 04:24 pmNNW 31.1 40.0----30.13- 20.7 37.0----
2024-02-29 04:18 pmNNW 33.0 42.0----30.13- 20.7 37.0----
2024-02-29 04:12 pmNNW 36.9 42.9----30.12- 20.1 37.0----
2024-02-29 04:06 pmNNW 35.0 42.9----30.12- 20.8 37.0----
2024-02-29 04:00 pmNNW 36.9 42.0----30.12-0.09 20.8 37.0----
2024-02-29 03:54 pmNNW 38.1 42.0----30.12- 20.1 37.0----
2024-02-29 03:48 pmNNW 36.9 41.0----30.13- 20.5 37.0----
2024-02-29 03:42 pmNNW 34.0 40.0----30.14- 20.1 37.0----
2024-02-29 03:36 pmNNW 34.0 38.1----30.14- 19.9 37.0----
2024-02-29 03:30 pmNNW 34.0 36.9----30.15- 19.6 37.0----
2024-02-29 03:24 pm NW 29.9 34.0----30.16- 19.6 36.9----
2024-02-29 03:18 pm NW 26.0 31.1----30.17- 19.6 36.9----
2024-02-29 03:12 pm NW 24.1 31.1----30.18- 19.4 36.9----
2024-02-29 03:06 pm NW 24.1 27.0----30.19- 19.4 37.0----
2024-02-29 03:00 pm NW 22.9 27.0----30.19- 19.4 37.2----
2024-02-29 02:54 pm NW 20.0 28.0----30.19- 19.2 37.0----
2024-02-29 02:48 pm NW 20.0 27.0----30.19- 19.6 37.2----
2024-02-29 02:42 pmWNW 19.0 28.0----30.19- 19.6 37.0----
2024-02-29 02:36 pmWNW 20.0 27.0----30.20- 18.9 37.0----
2024-02-29 01:42 pm W 12.0 21.0----30.22- 18.7 37.0----
2024-02-29 01:36 pm W 13.0 22.0----30.22- 18.7 36.9----
2024-02-29 01:30 pmWNW 19.0 25.1----30.22- 18.9 36.7----
2024-02-29 01:24 pmWNW 13.0 22.9----30.21- 18.7 35.8----
2024-02-29 01:18 pmWNW 13.0 22.0----30.22- 18.9 35.8----
2024-02-29 01:12 pm W 13.0 22.9----30.22- 18.9 36.1----
2024-02-29 01:06 pm NW 20.0 25.1----30.22- 18.1 36.5----
2024-02-29 01:00 pmWNW 15.0 22.0----30.21+0.04 18.5 36.7----
2024-02-29 12:54 pm NW 13.0 22.0----30.22- 18.3 36.9----
2024-02-29 12:48 pm NW 18.1 22.0----30.21- 18.5 37.0----
2024-02-29 12:42 pmWNW 8.0 19.0----30.21- 18.1 36.9----
2024-02-29 12:36 pm NW 9.9 17.1----30.21- 18.3 36.5----
2024-02-29 12:30 pmWNW 15.9 26.0----30.20- 18.1 36.5----
2024-02-29 12:24 pmWNW 15.9 20.0----30.20- 18.1 36.5----
2024-02-29 12:18 pm NW 13.0 28.0----30.20- 18.0 36.5----
2024-02-29 12:12 pmWNW 12.0 27.0----30.20- 18.1 36.7----
2024-02-29 12:06 pm NW 20.0 29.9----30.20- 18.0 36.7----
2024-02-29 12:00 pm NW 19.0 27.0------------
2024-02-29 11:54 am NW 18.1 28.0----30.20- 18.0 36.7----
2024-02-29 11:48 amWNW 15.9 21.0----30.20- 17.8 36.9----
2024-02-29 11:42 am NW 19.0 24.1----30.20- 18.3 37.0----
2024-02-29 11:36 am NW 25.1 36.9----30.20- 18.1 37.0----
2024-02-29 11:30 am NW 21.0 28.9----30.20- 18.9 37.0----
2024-02-29 11:24 am NW 22.9 31.1----30.19- 18.5 36.7----
2024-02-29 11:18 am NW 21.0 31.1----30.19- 18.5 36.5----
2024-02-29 11:12 am NW 26.0 35.0----30.18- 18.0 36.5----
2024-02-29 11:06 am NW 27.0 34.0----30.18- 17.8 36.5----
2024-02-29 11:00 am NW 25.1 34.0----30.18-0.02 18.0 36.5----
2024-02-29 10:54 am NW 25.1 32.1----30.18- 18.3 36.5----
2024-02-29 10:48 am NW 25.1 32.1----30.18- 18.0 36.5----
2024-02-29 10:42 am NW 29.9 38.1----30.17- 17.8 36.5----
2024-02-29 10:36 am NW 31.1 36.9----30.17- 18.0 36.5----
2024-02-29 10:30 am NW 29.9 35.9----30.17- 17.4 36.7----
2024-02-29 10:24 am NW 31.1 39.0----30.16- 17.8 36.7----
2024-02-29 10:18 am NW 31.1 36.9----30.16- 18.0 36.7----
2024-02-29 10:12 am NW 25.1 34.0----30.17- 18.0 36.5----
2024-02-29 10:06 am NW 29.9 35.9----30.17- 18.3 36.1----
2024-02-29 10:00 am NW 28.9 35.9----30.17-0.02------
2024-02-29 09:54 am NW 32.1 35.9----30.17- 17.6 36.3----
2024-02-29 09:48 am NW 28.0 35.0----30.17- 17.2 36.1----
2024-02-29 09:42 am NW 28.9 38.1----30.17- 17.4 36.3----
2024-02-29 09:36 am NW 22.9 29.9----30.17- 17.6 36.3----
2024-02-29 09:30 am NW 24.1 28.0----30.18- 17.4 36.5----
2024-02-29 09:24 am NW 22.9 28.0----30.18- 16.5 36.3----
2024-02-29 09:18 amWNW 21.0 27.0----30.19- 17.1 36.3----
2024-02-29 09:12 am NW 24.1 28.9----30.19- 17.4 36.3----
2024-02-29 09:06 amWNW 24.1 29.9----30.19- 16.9 36.3----
2024-02-29 09:00 am NW 25.1 35.9----30.19+0.01 17.2 36.5----
2024-02-29 08:54 am NW 25.1 35.0----30.19- 16.9 36.5----
2024-02-29 08:48 amWNW 21.0 28.9------------
2024-02-29 08:42 am NW 22.0 28.0----30.20- 17.2 36.5----
2024-02-29 08:36 amWNW 18.1 28.9----30.20- 17.1 36.3----
2024-02-29 08:30 amWNW 20.0 26.0----30.20-------
2024-02-29 08:24 amWNW 22.0 26.0----30.20- 17.1 36.3----
2024-02-29 08:18 amWNW 18.1 29.9----30.20- 17.1 36.5----
2024-02-29 08:12 amWNW 22.0 28.9----30.19- 17.6 36.1----
2024-02-29 08:06 amWNW 15.0 22.9----30.20- 17.2 36.1----
2024-02-29 08:00 amWNW 15.0 26.0----30.20+0.04 17.6 36.5----
2024-02-29 07:54 am NW 15.9 27.0----30.19- 18.3 36.7----
2024-02-29 07:48 amWNW 18.1 27.0----30.19- 17.6 37.2----
2024-02-29 07:42 am NW 22.9 29.9----30.19- 17.4 37.2----
2024-02-29 07:36 am W 15.0 25.1----30.19- 17.2 37.2----
2024-02-29 07:30 amWNW 15.0 21.0----30.20- 18.0 37.2----
2024-02-29 07:24 am W 18.1 22.9----30.19- 17.6 37.2----
2024-02-29 07:18 am W 19.0 22.0----30.19- 17.1 37.2----
2024-02-29 07:12 amWNW 13.0 18.1----30.19- 17.4 37.2----
2024-02-29 07:06 amWNW 15.9 24.1----30.19- 17.8 37.0----
2024-02-29 07:00 am NW 15.0 22.0----30.19+0.03 17.2 37.2----
2024-02-29 06:54 am NW 18.1 32.1----30.19- 17.8 37.2----
2024-02-29 06:48 am NW 22.0 29.9----30.19- 18.0 37.2----
2024-02-29 06:42 am NW 22.9 28.9----30.19- 18.0 37.2----
2024-02-29 06:36 am NW 15.0 21.0----30.20- 18.0 37.2----
2024-02-29 06:30 amWNW 14.0 27.0----30.20- 17.1 37.2----
2024-02-29 06:24 am NW 22.9 28.0----30.19- 18.0 37.2----
2024-02-29 06:18 am NW 20.0 25.1----30.19- 17.4 37.4----
2024-02-29 06:12 am NW 17.1 26.0----30.19- 17.8 37.4----
2024-02-29 06:06 am NW 17.1 21.0----30.19- 17.8 37.2----
2024-02-29 06:00 am NW 19.0 25.1----30.18+0.02 18.0 37.2----
2024-02-29 05:54 amNNW 22.0 31.1----30.19- 19.2 37.4----
2024-02-29 05:48 amNNW 24.1 28.0----30.18- 19.9 37.8----
2024-02-29 05:42 am NW 21.0 28.9----30.17- 19.2 37.8----
2024-02-29 05:36 am NW 20.0 29.9----30.17- 20.3 37.8----
2024-02-29 05:30 am NW 25.1 31.1----30.17- 19.4 37.8----
2024-02-29 05:24 am NW 22.9 31.1----30.16- 19.6 37.8----
2024-02-29 05:18 am NW 24.1 32.1----30.16- 19.9 37.8----
2024-02-29 05:12 am NW 25.1 28.9----30.16- 19.6 37.8----
2024-02-29 05:06 am NW 22.9 34.0----30.15- 20.1 37.8----
2024-02-29 05:00 amNNW 25.1 36.9----30.16+0.00 19.8 37.8----
2024-02-29 04:54 am NW 22.0 28.9----30.16- 20.1 37.8----
2024-02-29 04:48 am NW 19.0 29.9----30.16- 19.9 37.8----
2024-02-29 04:42 am NW 22.9 32.1----30.16- 20.1 37.8----
2024-02-29 04:36 am NW 24.1 32.1----30.16- 19.9 37.8----
2024-02-29 04:30 am NW 15.9 24.1----30.16- 19.8 37.8----
2024-02-29 04:24 am NW 17.1 20.0----30.16- 19.6 37.8----
2024-02-29 04:18 am NW 15.9 22.0----30.16- 19.8 37.8----
2024-02-29 04:12 amWNW 18.1 24.1----30.16- 19.2 37.8----
2024-02-29 04:06 amWNW 12.0 21.0----30.16- 19.6 37.8----
2024-02-29 04:00 am NW 15.0 19.0----30.16+0.01 19.4 37.8----
2024-02-29 03:54 amWNW 12.0 21.0----30.17- 19.8 37.8----
2024-02-29 03:48 amWNW 14.0 19.0----30.16- 19.9 37.8----
2024-02-29 03:42 am NW 13.0 19.0----30.16- 19.6 37.8----
2024-02-29 03:36 amWNW 12.0 17.1----30.16- 19.9 37.8----
2024-02-29 03:30 amWNW 9.9 15.9----30.16- 19.8 37.6----
2024-02-29 03:24 am NW 13.0 19.0----30.16- 19.8 37.6----
2024-02-29 03:18 am W 7.0 12.0----30.16- 19.4 37.6----
2024-02-29 03:12 amWNW 8.0 19.0----30.16- 19.6 37.6----
2024-02-29 03:06 amWNW 9.9 18.1----30.16- 19.2 37.6----
2024-02-29 03:00 amWNW 18.1 22.9----30.16+0.01 19.0 37.6----
2024-02-29 02:54 amWNW 14.0 19.0----30.16- 19.4 37.6----
2024-02-29 02:48 amWNW 12.0 21.0----30.16- 19.8 37.6----
2024-02-29 02:42 amWNW 14.0 19.0----30.15- 19.4 37.6----
2024-02-29 02:36 amWNW 17.1 22.9----30.15- 19.4 37.4----
2024-02-29 02:30 am NW 15.0 25.1----30.15- 20.1 37.4----
2024-02-29 02:24 am NW 19.0 26.0----30.15- 20.1 37.4----
2024-02-29 02:18 am NW 15.9 21.0----30.15- 20.3 37.2----
2024-02-29 02:12 am NW 15.9 20.0----30.15- 20.5 37.2----
2024-02-29 02:06 am NW 15.0 22.9----30.16- 20.5 37.2----
2024-02-29 02:00 am NW 19.0 25.1----30.16+0.02 20.3 37.4----
2024-02-29 01:54 am NW 15.9 22.0----30.16-- 37.4----
2024-02-29 01:48 am NW 18.1 21.0----30.15-- 37.0----
2024-02-29 01:42 am NW 17.1 20.0----30.15- 20.8 37.0----
2024-02-29 01:36 am NW 13.0 20.0----30.15- 20.1 37.0----
2024-02-29 01:30 am NW 15.0 21.0----30.15- 20.7 37.0----
2024-02-29 01:24 am NW 14.0 21.0----30.15- 21.0 37.0----
2024-02-29 01:18 am NW 13.0 21.0----30.15- 21.0 37.8----
2024-02-29 01:12 amWNW 12.0 20.0----30.15- 20.7 37.6----
2024-02-29 01:06 am NW 8.9 17.1----30.15- 20.7 37.0----
2024-02-29 01:00 amWNW 13.0 19.0----30.15+0.02 20.5 37.2----
2024-02-29 12:54 amWNW 14.0 19.0----30.16- 20.7 37.2----
2024-02-29 12:48 amWNW 14.0 18.1----30.15- 20.5 37.2----
2024-02-29 12:42 amWNW 14.0 21.0----30.15- 21.2 37.0----
2024-02-29 12:36 amWNW 11.1 21.0----30.15- 21.6 36.9----
2024-02-29 12:30 amWNW 15.0 22.9----30.15- 21.4 37.0----
2024-02-29 12:24 amWNW 15.0 21.0----30.15- 21.6 36.9----
2024-02-29 12:18 amWNW 12.0 19.0----30.15- 21.0 36.7----
2024-02-29 12:12 am NW 15.9 22.0----30.15- 21.6 36.5----
2024-02-29 12:00 am NW 15.0 19.0----30.15+0.04 21.2 37.6----
2024-02-28 11:54 pmWNW 15.0 19.0----30.15- 20.7 36.9----
2024-02-28 11:48 pmWNW 17.1 22.0----30.14- 20.8 37.2----
2024-02-28 11:42 pmWNW 18.1 22.0----30.14- 21.0 37.4----
2024-02-28 11:24 pm NW 20.0 28.0----30.14- 21.4 37.0----
2024-02-28 11:18 pmWNW 19.0 22.9----30.14- 21.9 37.4----
2024-02-28 11:12 pm NW 18.1 25.1----30.14- 22.3 37.0----
2024-02-28 11:00 pmWNW 14.0 25.1----30.14+0.04 21.2 36.7----
2024-02-28 10:54 pmNNW 22.9 28.9----30.13- 22.3 36.7----
2024-02-28 10:48 pmNNW 22.9 29.9----30.13- 22.3 37.0----
2024-02-28 10:42 pm NW 17.1 20.0----30.13- 21.7 36.9----
2024-02-28 10:36 pmWNW 14.0 22.9----30.13- 22.3 36.9----
2024-02-28 10:30 pm NW 20.0 29.9----30.13- 22.3 37.0----
2024-02-28 10:24 pm NW 18.1 24.1----30.13- 22.1 36.7----
2024-02-28 10:18 pm NW 17.1 24.1----30.14- 22.5 36.7----
2024-02-28 10:12 pm NW 21.0 25.1----30.13- 21.9 36.7----
2024-02-28 10:06 pm NW 18.1 25.1----30.13- 22.5 36.7----
2024-02-28 10:00 pmNNW 22.0 27.0----30.13+0.05 22.5 36.9----
2024-02-28 09:54 pm NW 19.0 24.1----30.13- 22.1 36.9----
2024-02-28 09:48 pm NW 18.1 22.9----30.13- 21.9 36.9----
2024-02-28 09:42 pm NW 20.0 26.0----30.13- 21.9 36.9----
2024-02-28 09:36 pm NW 17.1 24.1----30.13- 22.6 37.0----
2024-02-28 09:30 pmNNW 19.0 24.1----30.13- 22.3 37.0----
2024-02-28 09:24 pm NW 18.1 22.0----30.12- 23.0 37.0----
2024-02-28 09:18 pmNNW 15.0 19.0----30.12- 22.8 37.0----
2024-02-28 09:12 pmNNW 18.1 21.0----30.12- 22.5 37.2----
2024-02-28 09:06 pmNNW 18.1 22.9------------
2024-02-28 09:00 pm NW 18.1 22.0----30.11+0.04 22.3 37.0----
2024-02-28 08:54 pm NW 18.1 22.9----30.11- 22.1 37.0----
2024-02-28 08:48 pm NW 20.0 24.1----30.11- 23.0 37.0----
2024-02-28 08:42 pmNNW 20.0 26.0----30.12- 23.4 37.0----
2024-02-28 08:30 pmNNW 20.0 25.1----30.11- 23.4 37.2----
2024-02-28 08:24 pmNNW 17.1 25.1----30.10- 23.9 37.0----
2024-02-28 08:18 pmNNW 21.0 26.0----30.10- 23.9 37.0----
2024-02-28 08:12 pmNNW 20.0 27.0----30.09- 23.7 37.0----
2024-02-28 08:00 pmNNW 18.1 25.1----30.09+0.02 24.1 36.9----
2024-02-28 07:54 pmNNW 22.0 26.0----30.09- 23.5 37.0----
2024-02-28 07:48 pmNNW 20.0 28.9------------
2024-02-28 07:42 pmNNW 22.0 26.0----30.10- 24.3 37.4----
2024-02-28 07:36 pmNNW 21.0 25.1----30.09- 24.8 37.6----
2024-02-28 07:30 pm NW 17.1 22.0----30.09- 24.6 37.6----
2024-02-28 07:24 pmNNW 21.0 24.1----30.09- 24.4 37.6----
2024-02-28 07:18 pm NW 14.0 22.9----30.09- 24.4 37.6----
2024-02-28 07:12 pm NW 18.1 22.0----30.08- 24.4 37.6----
2024-02-28 07:06 pm NW 17.1 21.0----30.08- 24.4 37.6----
2024-02-28 07:00 pm NW 15.9 21.0----30.08+0.00 24.6 37.6----
2024-02-28 06:54 pmNNW 17.1 22.0----30.08- 24.6 37.6----
2024-02-28 06:48 pmNNW 18.1 20.0----30.08- 24.4 37.6----
2024-02-28 06:42 pmNNW 17.1 22.0----30.08- 25.0 37.4----
2024-02-28 06:36 pmNNW 17.1 19.0----30.08- 25.2 37.6----
2024-02-28 06:30 pmNNW 15.9 20.0----30.08- 25.3 37.8----
2024-02-28 06:24 pmNNW 18.1 20.0----30.08- 24.8 37.8----
2024-02-28 06:18 pmNNW 18.1 22.0----30.08- 25.0 37.6----
2024-02-28 06:12 pmNNW 15.9 20.0----30.08- 25.9 37.4----
2024-02-28 06:06 pmNNW 15.9 20.0----30.08- 25.7 37.4----
2024-02-28 06:00 pm NW 17.1 22.0----30.08-0.01 26.4 37.2----
2024-02-28 05:54 pm NW 17.1 22.0----30.07- 25.7 37.4----